• en Belgique
  • Liste des pays
  • À 7 jours
  • Température de l'eau
  • Carte satellitaire
  • Carte météo
  • Widgets météo
  • user-avatar
    Se connecter

    Météo par heure à Asse

    Ce jour, 19 Février, Lundi

    Heure Température Précipitation Vent Pression Humidité
    00:00 0°C° 0 mm 3 m/s 762 mmHg 75%
    01:00 0°C° 0 mm 3 m/s 762 mmHg 74%
    02:00 0°C° 0 mm 3 m/s 762 mmHg 73%
    03:00 0°C° 0 mm 3 m/s 761 mmHg 72%
    04:00 0°C° 0 mm 3 m/s 761 mmHg 71%
    05:00 0°C° 0 mm 3 m/s 761 mmHg 71%
    06:00 0°C° 0 mm 3 m/s 761 mmHg 70%
    07:00 +1°C° 0,1 mm 3 m/s 760 mmHg 69%
    08:00 +1°C° 0,1 mm 3 m/s 760 mmHg 68%
    09:00 +2°C° 0,1 mm 3 m/s 760 mmHg 67%
    10:00 +3°C° 0,1 mm 3 m/s 760 mmHg 66%
    11:00 +3°C° 0,1 mm 3 m/s 760 mmHg 66%
    12:00 +4°C° 0,1 mm 3 m/s 759 mmHg 66%
    13:00 +4°C° 0,1 mm 3 m/s 759 mmHg 69%
    14:00 +4°C° 0,1 mm 3 m/s 758 mmHg 71%
    15:00 +5°C° 0,1 mm 2 m/s 758 mmHg 74%
    16:00 +5°C° 0,3 mm 2 m/s 758 mmHg 76%
    17:00 +5°C° 0,3 mm 2 m/s 758 mmHg 79%
    18:00 +3°C° 0,3 mm 3 m/s 758 mmHg 82%
    19:00 +3°C° 0,2 mm 3 m/s 758 mmHg 83%
    20:00 +3°C° 0,2 mm 3 m/s 757 mmHg 85%
    21:00 +3°C° 0,2 mm 3 m/s 757 mmHg 86%
    22:00 +3°C° 0,1 mm 3 m/s 757 mmHg 86%
    23:00 +3°C° 0,1 mm 3 m/s 757 mmHg 87%

    Demain, 20 Février, Mardi

    Heure Température Précipitation Vent Pression Humidité
    00:00 +4°C° 0,1 mm 2 m/s 757 mmHg 87%
    01:00 +3°C° 0,1 mm 2 m/s 757 mmHg 87%
    02:00 +3°C° 0,1 mm 2 m/s 757 mmHg 87%
    03:00 +3°C° 0,1 mm 2 m/s 757 mmHg 87%
    04:00 +3°C° 0,1 mm 2 m/s 757 mmHg 87%
    05:00 +3°C° 0,1 mm 2 m/s 757 mmHg 87%
    06:00 +3°C° 0,1 mm 2 m/s 757 mmHg 87%
    07:00 +3°C° 0 mm 2 m/s 757 mmHg 84%
    08:00 +3°C° 0 mm 2 m/s 758 mmHg 81%
    09:00 +4°C° 0 mm 2 m/s 758 mmHg 78%
    10:00 +3°C° 0 mm 3 m/s 758 mmHg 73%
    11:00 +4°C° 0 mm 3 m/s 758 mmHg 69%
    12:00 +5°C° 0 mm 3 m/s 758 mmHg 64%
    13:00 +5°C° 0 mm 4 m/s 759 mmHg 62%
    14:00 +5°C° 0 mm 4 m/s 759 mmHg 60%
    15:00 +5°C° 0 mm 5 m/s 759 mmHg 58%
    16:00 +4°C° 0 mm 4 m/s 760 mmHg 62%
    17:00 +3°C° 0 mm 4 m/s 760 mmHg 67%
    18:00 +1°C° 0 mm 4 m/s 761 mmHg 71%
    19:00 +1°C° 0 mm 4 m/s 762 mmHg 72%
    20:00 0°C° 0 mm 4 m/s 763 mmHg 72%
    21:00 0°C° 0 mm 4 m/s 763 mmHg 73%
    22:00 -1°C° 0 mm 4 m/s 764 mmHg 74%
    23:00 -1°C° 0 mm 4 m/s 764 mmHg 76%

    Après-demain, 21 Février, Mercredi

    Heure Température Précipitation Vent Pression Humidité
    00:00 -1°C° 0 mm 3 m/s 764 mmHg 78%
    01:00 -1°C° 0 mm 3 m/s 764 mmHg 79%
    02:00 -1°C° 0 mm 3 m/s 764 mmHg 81%
    03:00 -2°C° 0 mm 3 m/s 765 mmHg 82%
    04:00 -2°C° 0 mm 3 m/s 765 mmHg 83%
    05:00 -2°C° 0 mm 3 m/s 765 mmHg 83%
    06:00 -2°C° 0 mm 3 m/s 765 mmHg 83%
    07:00 -1°C° 0 mm 3 m/s 765 mmHg 78%
    08:00 0°C° 0 mm 3 m/s 765 mmHg 73%
    09:00 +1°C° 0 mm 3 m/s 765 mmHg 68%
    10:00 +1°C° 0 mm 4 m/s 765 mmHg 63%
    11:00 +3°C° 0 mm 4 m/s 765 mmHg 58%
    12:00 +4°C° 0 mm 4 m/s 765 mmHg 53%
    13:00 +4°C° 0 mm 4 m/s 764 mmHg 53%
    14:00 +4°C° 0 mm 4 m/s 764 mmHg 53%
    15:00 +5°C° 0 mm 5 m/s 764 mmHg 53%
    16:00 +3°C° 0 mm 4 m/s 763 mmHg 59%
    17:00 +1°C° 0 mm 4 m/s 763 mmHg 65%
    18:00 +1°C° 0 mm 3 m/s 763 mmHg 71%
    19:00 0°C° 0 mm 3 m/s 763 mmHg 72%
    20:00 0°C° 0 mm 3 m/s 764 mmHg 74%
    21:00 -1°C° 0 mm 3 m/s 764 mmHg 76%
    22:00 -1°C° 0 mm 3 m/s 764 mmHg 77%
    23:00 -1°C° 0 mm 3 m/s 763 mmHg 77%

    22 Février, Jeudi

    Heure Température Précipitation Vent Pression Humidité
    00:00 -2°C° 0 mm 3 m/s 763 mmHg 78%
    01:00 -2°C° 0 mm 3 m/s 763 mmHg 78%
    02:00 -2°C° 0 mm 3 m/s 763 mmHg 78%
    03:00 -3°C° 0 mm 4 m/s 763 mmHg 78%
    04:00 -3°C° 0 mm 4 m/s 763 mmHg 78%
    05:00 -3°C° 0 mm 4 m/s 763 mmHg 77%
    06:00 -3°C° 0 mm 4 m/s 763 mmHg 77%
    07:00 -2°C° 0 mm 5 m/s 763 mmHg 72%
    08:00 -2°C° 0 mm 5 m/s 763 mmHg 67%
    09:00 -2°C° 0 mm 6 m/s 763 mmHg 61%
    10:00 -1°C° 0 mm 6 m/s 763 mmHg 57%
    11:00 +1°C° 0 mm 6 m/s 762 mmHg 52%
    12:00 +2°C° 0 mm 7 m/s 762 mmHg 47%
    13:00 +2°C° 0 mm 7 m/s 762 mmHg 45%
    14:00 +2°C° 0 mm 7 m/s 761 mmHg 44%
    15:00 +2°C° 0 mm 7 m/s 761 mmHg 42%
    16:00 0°C° 0 mm 7 m/s 761 mmHg 45%
    17:00 -1°C° 0 mm 6 m/s 762 mmHg 49%
    18:00 -1°C° 0 mm 5 m/s 762 mmHg 52%
    19:00 -1°C° 0 mm 5 m/s 762 mmHg 54%
    20:00 -2°C° 0 mm 5 m/s 762 mmHg 56%
    21:00 -3°C° 0 mm 6 m/s 763 mmHg 58%
    22:00 -2°C° 0 mm 5 m/s 763 mmHg 60%
    23:00 -4°C° 0 mm 5 m/s 763 mmHg 62%

    23 Février, Vendredi

    Heure Température Précipitation Vent Pression Humidité
    00:00 -4°C° 0 mm 5 m/s 762 mmHg 63%
    01:00 -4°C° 0 mm 5 m/s 762 mmHg 65%
    02:00 -4°C° 0 mm 5 m/s 762 mmHg 66%
    03:00 -4°C° 0 mm 5 m/s 762 mmHg 68%
    04:00 -4°C° 0 mm 5 m/s 762 mmHg 70%
    05:00 -5°C° 0 mm 5 m/s 762 mmHg 73%
    06:00 -5°C° 0 mm 5 m/s 762 mmHg 75%
    07:00 -4°C° 0 mm 5 m/s 762 mmHg 71%
    08:00 -3°C° 0 mm 6 m/s 762 mmHg 66%
    09:00 -2°C° 0 mm 7 m/s 762 mmHg 62%
    10:00 -1°C° 0 mm 7 m/s 762 mmHg 58%
    11:00 -1°C° 0 mm 7 m/s 762 mmHg 55%
    12:00 0°C° 0 mm 7 m/s 762 mmHg 52%
    13:00 0°C° 0 mm 7 m/s 762 mmHg 51%
    14:00 0°C° 0 mm 7 m/s 762 mmHg 51%
    15:00 0°C° 0 mm 7 m/s 761 mmHg 51%
    16:00 -1°C° 0 mm 6 m/s 762 mmHg 53%
    17:00 -2°C° 0 mm 6 m/s 762 mmHg 55%
    18:00 -2°C° 0 mm 5 m/s 762 mmHg 57%
    19:00 -2°C° 0 mm 5 m/s 763 mmHg 57%
    20:00 -4°C° 0 mm 6 m/s 763 mmHg 56%
    21:00 -4°C° 0 mm 6 m/s 764 mmHg 56%
    22:00 -4°C° 0 mm 5 m/s 764 mmHg 57%
    23:00 -5°C° 0 mm 5 m/s 764 mmHg 58%

    24 Février, Samedi

    Heure Température Précipitation Vent Pression Humidité
    00:00 -5°C° 0 mm 5 m/s 765 mmHg 59%
    01:00 -5°C° 0 mm 5 m/s 765 mmHg 59%
    02:00 -5°C° 0 mm 5 m/s 765 mmHg 59%
    03:00 -5°C° 0 mm 5 m/s 765 mmHg 58%
    04:00 -5°C° 0 mm 5 m/s 765 mmHg 57%
    05:00 -6°C° 0 mm 5 m/s 766 mmHg 56%
    06:00 -6°C° 0 mm 5 m/s 766 mmHg 56%
    07:00 -5°C° 0 mm 5 m/s 766 mmHg 52%
    08:00 -4°C° 0 mm 6 m/s 767 mmHg 49%
    09:00 -4°C° 0 mm 6 m/s 767 mmHg 46%
    10:00 -3°C° 0 mm 6 m/s 767 mmHg 43%
    11:00 -2°C° 0 mm 6 m/s 767 mmHg 41%
    12:00 -2°C° 0 mm 6 m/s 767 mmHg 38%
    13:00 -2°C° 0 mm 6 m/s 767 mmHg 37%
    14:00 -2°C° 0 mm 6 m/s 767 mmHg 37%
    15:00 -2°C° 0 mm 6 m/s 766 mmHg 36%
    16:00 -3°C° 0 mm 6 m/s 767 mmHg 38%
    17:00 -4°C° 0 mm 6 m/s 767 mmHg 39%
    18:00 -5°C° 0 mm 5 m/s 768 mmHg 40%
    19:00 -6°C° 0 mm 5 m/s 768 mmHg 40%
    20:00 -6°C° 0 mm 5 m/s 768 mmHg 40%
    21:00 -6°C° 0 mm 6 m/s 769 mmHg 40%
    22:00 -6°C° 0 mm 5 m/s 769 mmHg 41%
    23:00 -7°C° 0 mm 5 m/s 769 mmHg 43%
    Voir plus